Weather History for Dumas, TX

Change the Weather History Date:

Friday, June 21, 2013

  Actual Average (KBGD) Record (KBGD)
Temperature  
Mean Temperature 80 °F 78 °F  
Max Temperature 95 °F 91 °F 106 °F (1981)
Min Temperature 66 °F 66 °F 54 °F (1961)
Degree Days  
Heating Degree Days 0 0  
Month to date heating degree days 0  
Since 1 June heating degree days 0  
Since 1 July heating degree days 3763  
Cooling Degree Days 15 13  
Month to date cooling degree days 228  
Year to date cooling degree days 425  
Since 1 June cooling degree days 228  
Growing Degree Days 30 (Base 50)    
Moisture  
Dew Point 55 °F    
Average Humidity 41    
Maximum Humidity 69    
Minimum Humidity 19    
Precipitation  
Precipitation 0.00 in 0.11 in 0.78 in (1982)
Month to date precipitation 2.32  
Year to date precipitation 9.37  
Snow  
Snow 0.00 in - - ()
Month to date snowfall  
Since 1 June snowfall  
Since 1 July snowfall  
Snow Depth -    
Sea Level Pressure  
Sea Level Pressure 29.96 in    
Wind  
Wind Speed 22 mph (South)    
Max Wind Speed 32 mph    
Max Gust Speed 43 mph    
Visibility 10 miles    
Events      
T = Trace of Precipitation, MM = Missing Value Source: NWS Daily Summary

Daily Weather History Graph

Daily Weather History Graph

Search for Another Location

Airport:

Trip Planner

Search our weather history database for the weather conditions in past years. The results will help you decide how hot, cold, wet, or windy it might be!

Date:

Astronomy

Jun. 21, 2013 Rise Set
Actual Time 6:32 AM CDT 9:07 PM CDT
Civil Twilight 6:01 AM CDT 9:37 PM CDT
Nautical Twilight 5:24 AM CDT 10:15 PM CDT
Astronomical Twilight 4:42 AM CDT 10:57 PM CDT
Moon 7:22 PM CDT (6/21) 4:46 AM CDT (6/21)
Length of Visible Light 15h 36m
Length of Day
14h 35m
Waxing Gibbous, 95% of the Moon is Illuminated
Jun 21
Waxing Gibbous
Jun 23
Full
Jun 29
Last Quarter
Jul 8
New
Jul 15
First Quarter

Hourly Weather History & Observations

Time (CDT) Temp. Heat Index Dew Point Humidity Pressure Visibility Wind Dir Wind Speed Gust Speed Precip Events Conditions
12:15 AM 79.3 °F - 43.9 °F 28% 29.96 in 10.0 mi South 28.8 mph 42.6 mph N/A   Mostly Cloudy
12:35 AM 78.1 °F - 44.1 °F 30% 29.97 in 10.0 mi South 20.7 mph 28.8 mph N/A   Scattered Clouds
12:55 AM 77.4 °F - 44.4 °F 31% 29.98 in 10.0 mi SSW 26.5 mph 31.1 mph N/A   Clear
1:15 AM 77.5 °F - 45.0 °F 31% 29.98 in 10.0 mi SSW 26.5 mph 32.2 mph N/A   Clear
1:35 AM 77.4 °F - 45.3 °F 32% 29.98 in 10.0 mi SSW 24.2 mph 32.2 mph N/A   Clear
1:55 AM 76.6 °F - 49.3 °F 38% 29.98 in 10.0 mi SSW 21.9 mph 28.8 mph N/A   Clear
2:15 AM 75.6 °F - 49.6 °F 40% 29.98 in 10.0 mi SSW 19.6 mph 27.6 mph N/A   Clear
2:35 AM 74.5 °F - 49.5 °F 41% 29.98 in 10.0 mi SSW 17.3 mph - N/A   Clear
2:55 AM 74.3 °F - 48.6 °F 40% 29.98 in 10.0 mi SSW 18.4 mph 25.3 mph N/A   Clear
3:15 AM 73.2 °F - 48.6 °F 42% 29.98 in 10.0 mi SSW 16.1 mph - N/A   Clear
3:35 AM 73.8 °F - 49.6 °F 43% 29.98 in 10.0 mi SSW 21.9 mph - N/A   Clear
3:55 AM 73.8 °F - 51.6 °F 46% 29.98 in 10.0 mi SSW 18.4 mph 25.3 mph N/A   Clear
4:15 AM 73.4 °F - 53.2 °F 49% 29.98 in 10.0 mi SSW 17.3 mph 25.3 mph N/A   Clear
4:35 AM 72.5 °F - 54.1 °F 52% 29.98 in 10.0 mi South 16.1 mph 20.7 mph N/A   Clear
4:55 AM 71.6 °F - 54.9 °F 55% 30.00 in 10.0 mi South 13.8 mph - N/A   Clear
5:15 AM 70.7 °F - 55.0 °F 58% 30.00 in 10.0 mi SSW 12.7 mph - N/A   Clear
5:35 AM 69.4 °F - 55.4 °F 61% 30.01 in 10.0 mi SSW 11.5 mph - N/A   Clear
5:55 AM 66.7 °F - 55.4 °F 67% 30.01 in 10.0 mi SW 8.1 mph - N/A   Clear
6:15 AM 66.9 °F - 55.6 °F 67% 30.01 in 10.0 mi SW 9.2 mph - N/A   Clear
6:35 AM 68.0 °F - 56.7 °F 67% 30.01 in 10.0 mi SW 11.5 mph - N/A   Clear
6:55 AM 68.4 °F - 57.7 °F 69% 30.00 in 10.0 mi SW 12.7 mph - N/A   Scattered Clouds
7:15 AM 69.1 °F - 58.6 °F 69% 30.00 in 10.0 mi SW 12.7 mph - N/A   Clear
7:35 AM 69.8 °F - 59.2 °F 69% 30.00 in 10.0 mi SW 16.1 mph - N/A   Clear
7:55 AM 71.4 °F - 59.5 °F 66% 30.00 in 10.0 mi SSW 18.4 mph - N/A   Clear
8:15 AM 72.5 °F - 59.4 °F 63% 30.00 in 10.0 mi SSW 18.4 mph - N/A   Clear
8:35 AM 74.8 °F - 58.8 °F 57% 30.00 in 10.0 mi SSW 26.5 mph 33.4 mph N/A   Clear
8:55 AM 75.9 °F - 58.6 °F 55% 30.00 in 10.0 mi SW 26.5 mph 33.4 mph N/A   Clear
9:15 AM 76.6 °F - 59.0 °F 54% 30.01 in 10.0 mi SW 27.6 mph 34.5 mph N/A   Clear
9:35 AM 77.4 °F - 58.5 °F 52% 30.00 in 10.0 mi SW 26.5 mph 32.2 mph N/A   Clear
9:55 AM 78.8 °F - 57.4 °F 48% 30.00 in 10.0 mi SSW 23.0 mph 32.2 mph N/A   Clear
10:15 AM 81.5 °F 81.3 °F 56.3 °F 42% 30.01 in 10.0 mi SSW 25.3 mph 32.2 mph N/A   Clear
10:35 AM 82.9 °F 82.3 °F 56.5 °F 40% 30.02 in 10.0 mi South 21.9 mph 28.8 mph N/A   Clear
10:55 AM 82.0 °F 82.2 °F 59.2 °F 46% 30.01 in 10.0 mi South 18.4 mph - N/A   Clear
11:15 AM 86.5 °F 84.7 °F 54.0 °F 33% 30.01 in 10.0 mi South 18.4 mph 28.8 mph N/A   Clear
11:35 AM 88.3 °F - 52.9 °F 30% 30.00 in 10.0 mi SW 25.3 mph 28.8 mph N/A   Clear
11:55 AM 90.5 °F - 50.7 °F 26% 30.00 in 10.0 mi SW 21.9 mph 28.8 mph N/A   Clear
12:15 PM 91.2 °F - 46.0 °F 21% 29.99 in 10.0 mi SSW 23.0 mph 26.5 mph N/A   Clear
12:35 PM 92.3 °F - 46.9 °F 21% 29.99 in 10.0 mi South 17.3 mph 25.3 mph N/A   Clear
12:55 PM 92.8 °F - 46.9 °F 21% 29.98 in 10.0 mi SW 19.6 mph 26.5 mph N/A   Clear
1:15 PM 94.1 °F - 45.9 °F 19% 29.98 in 10.0 mi South 15.0 mph 26.5 mph N/A   Clear
1:35 PM 94.3 °F - 46.0 °F 19% 29.97 in 10.0 mi SSW 20.7 mph 26.5 mph N/A   Clear
1:55 PM 94.8 °F - 50.5 °F 22% 29.96 in 10.0 mi South 19.6 mph 26.5 mph N/A   Clear
2:15 PM 93.4 °F 92.8 °F 59.4 °F 32% 29.95 in 10.0 mi South 26.5 mph 32.2 mph N/A   Clear
2:35 PM 93.2 °F 93.3 °F 61.3 °F 34% 29.95 in 10.0 mi South 21.9 mph 33.4 mph N/A   Clear
2:55 PM 92.8 °F 93.5 °F 61.9 °F 36% 29.94 in 10.0 mi South 23.0 mph 34.5 mph N/A   Clear
3:15 PM 93.7 °F 94.1 °F 61.5 °F 34% 29.94 in 10.0 mi South 28.8 mph 36.8 mph N/A   Clear
3:35 PM 93.6 °F 93.8 °F 61.3 °F 34% 29.93 in 10.0 mi South 27.6 mph 39.1 mph N/A   Clear
3:55 PM 93.0 °F 93.0 °F 60.4 °F 34% 29.93 in 10.0 mi South 32.2 mph 41.4 mph N/A   Clear
4:15 PM 93.2 °F 92.6 °F 58.8 °F 32% 29.93 in 10.0 mi SSE 25.3 mph 33.4 mph N/A   Clear
4:35 PM 93.0 °F 91.7 °F 57.6 °F 30% 29.93 in 10.0 mi South 25.3 mph 35.7 mph N/A   Clear
4:55 PM 93.4 °F 91.3 °F 54.3 °F 27% 29.92 in 10.0 mi South 26.5 mph 36.8 mph N/A   Clear
5:15 PM 93.0 °F 90.6 °F 53.1 °F 26% 29.91 in 10.0 mi South 21.9 mph 29.9 mph N/A   Clear
5:35 PM 90.5 °F - 52.5 °F 27% 29.91 in 10.0 mi South 25.3 mph 31.1 mph N/A   Clear
5:55 PM 94.1 °F 91.9 °F 53.8 °F 26% 29.91 in 10.0 mi South 25.3 mph 33.4 mph N/A   Clear
6:15 PM 92.8 °F 90.6 °F 53.8 °F 27% 29.90 in 10.0 mi South 23.0 mph 34.5 mph N/A   Clear
6:35 PM 93.4 °F - 52.7 °F 25% 29.89 in 10.0 mi South 25.3 mph 32.2 mph N/A   Clear
6:55 PM 92.5 °F 90.4 °F 54.5 °F 28% 29.89 in 10.0 mi SSE 26.5 mph 34.5 mph N/A   Clear
7:15 PM 92.1 °F 90.0 °F 54.3 °F 28% 29.89 in 10.0 mi SSE 25.3 mph 31.1 mph N/A   Clear
7:35 PM 91.0 °F 88.7 °F 53.8 °F 28% 29.89 in 10.0 mi SSE 24.2 mph 35.7 mph N/A   Clear
7:55 PM 90.0 °F 88.3 °F 56.1 °F 32% 29.90 in 10.0 mi South 24.2 mph 34.5 mph N/A   Scattered Clouds
8:15 PM 87.8 °F 86.7 °F 57.4 °F 36% 29.90 in 10.0 mi South 28.8 mph 39.1 mph N/A   Mostly Cloudy
8:35 PM 86.4 °F 85.4 °F 57.9 °F 38% 29.90 in 10.0 mi SSE 29.9 mph 38.0 mph N/A   Overcast
8:55 PM 85.3 °F 84.4 °F 57.7 °F 39% 29.91 in 10.0 mi SSE 25.3 mph 33.4 mph N/A   Overcast
9:15 PM 84.2 °F 83.7 °F 57.9 °F 41% 29.91 in 10.0 mi SSE 23.0 mph 31.1 mph N/A   Overcast
9:35 PM 83.3 °F 82.9 °F 57.7 °F 42% 29.92 in 10.0 mi SSE 23.0 mph 31.1 mph N/A   Mostly Cloudy
9:55 PM 82.6 °F 82.2 °F 57.6 °F 42% 29.93 in 10.0 mi SSE 25.3 mph 31.1 mph N/A   Scattered Clouds
10:15 PM 82.4 °F 82.0 °F 57.4 °F 42% 29.93 in 10.0 mi SSE 21.9 mph 29.9 mph N/A   Clear
10:35 PM 81.7 °F 81.8 °F 58.3 °F 45% 29.93 in 10.0 mi SSE 24.2 mph 29.9 mph N/A   Clear
10:55 PM 81.1 °F 81.5 °F 59.0 °F 47% 29.93 in 10.0 mi SSE 23.0 mph 32.2 mph N/A   Clear
11:15 PM 80.4 °F 81.0 °F 58.8 °F 48% 29.93 in 10.0 mi SSE 20.7 mph 26.5 mph N/A   Clear
11:35 PM 79.7 °F - 58.6 °F 48% 29.94 in 10.0 mi SSE 16.1 mph - N/A   Clear
11:55 PM 78.8 °F - 58.5 °F 50% 29.95 in 10.0 mi South 19.6 mph 24.2 mph N/A   Clear